Simultaneous Nadir Overpasses (SNOs) Predictions

Prediction of SNOs between GOES-14 and AQUA Satellite Orbit:

Table of predicted SNOs for the next 14.0 days since TLE Epoch: 11/20/2021
Index Date Time (GOES-14) GOES-14 Lat,Lon AQUA Lat,Lon Distance(km) Time Diff (sec)
1 11/20/2021 08:35:59 0.09,-104.41 0.14,-104.69 31.61 80
2 11/22/2021 08:21:08 0.10,-104.40 -0.49,-101.73 304.68 80
3 11/22/2021 20:42:31 -0.08,-104.15 -0.63,-106.92 313.79 80
4 11/24/2021 20:32:59 -0.08,-104.15 -0.05,-103.95 22.96 80
5 11/26/2021 20:20:49 -0.08,-104.15 0.59,-100.99 359.74 80
6 11/27/2021 08:42:05 0.05,-104.43 0.41,-106.17 197.19 80
7 11/29/2021 08:27:13 0.06,-104.43 -0.19,-103.20 139.39 80
8 11/29/2021 20:48:37 -0.04,-104.14 -0.93,-108.38 482.80 80
9 12/01/2021 08:15:02 0.06,-104.43 -0.85,-100.24 476.05 80
10 12/01/2021 20:36:25 -0.04,-104.14 -0.33,-105.42 145.68 80
11 12/03/2021 20:26:54 -0.05,-104.14 0.34,-102.47 190.99 80
